State University, AR

6:22 AM CDT on July 28, 2016 (GMT -0500)
Jonesboro Municipal

Weather History for KJBR - May, 2013

Change the Weather History Date:

Friday, May 31, 2013

  Actual Average Record
Temperature  
Mean Temperature 76 °F 74 °F  
Max Temperature 85 °F 85 °F 99 °F (1913)
Min Temperature 67 °F 63 °F 37 °F (1897)
Degree Days  
Heating Degree Days 0 0  
Month to date heating degree days 71 35  
Since 1 July heating degree days 3556 3652  
Cooling Degree Days 11 9  
Month to date cooling degree days 181 166  
Year to date cooling degree days 230 213  
Growing Degree Days 25 (Base 50)    
Moisture  
Dew Point 69 °F    
Average Humidity 79    
Maximum Humidity 93    
Minimum Humidity 65    
Precipitation  
Precipitation 2.29 in 0.08 in 3.81 in (1893)
Month to date precipitation 9.81 4.61  
Year to date precipitation 26.34 21.28  
Snow  
Snow 0.00 in 0.00 in - ()
Month to date snowfall 0.0 0.0  
Since 1 July snowfall 11.0 4.8  
Snow Depth 0.00 in    
Sea Level Pressure  
Sea Level Pressure 29.90 in    
Wind  
Wind Speed 12 mph (South)    
Max Wind Speed 29 mph    
Max Gust Speed 38 mph    
Visibility 8 miles    
Events Fog , Rain , Thunderstorm    
T = Trace of Precipitation, MM = Missing Value Source: NWS Daily Summary

Daily Weather History Graph

Daily Weather History Graph

Search for Another Location

Airport or City:

Trip Planner

Search our weather history database for the weather conditions in past years. The results will help you decide how hot, cold, wet, or windy it might be!

Date:

Astronomy

May. 31, 2013 Rise Set
Actual Time 5:47 AM CDT 8:13 PM CDT
Civil Twilight 5:18 AM CDT 8:42 PM CDT
Nautical Twilight 4:41 AM CDT 9:19 PM CDT
Astronomical Twilight 4:01 AM CDT 9:59 PM CDT
Moon 12:57 AM CDT (5/31) 12:53 PM CDT (5/31)
Length of Visible Light 15h 24m
Length of Day
14h 25m
Waning Gibbous, 51% of the Moon is Illuminated
May 31
Waning Gibbous
May 31
Last Quarter
Jun 8
New
Jun 16
First Quarter
Jun 23
Full

Hourly Weather History & Observations

Time (CDT) Temp. Heat Index Dew Point Humidity Pressure Visibility Wind Dir Wind Speed Gust Speed Precip Events Conditions
12:53 AM 73.9 °F - 70.0 °F 87% 29.87 in 10.0 mi South 20.7 mph 27.6 mph 0.04 in Rain Light Rain
1:02 AM 73.4 °F - 69.8 °F 88% 29.89 in 10.0 mi South 17.3 mph 29.9 mph 0.01 in Rain , Thunderstorm Light Rain
1:17 AM 73.4 °F - 71.6 °F 94% 29.89 in 10.0 mi South 15.0 mph - 0.03 in Rain Light Rain
1:53 AM 73.9 °F - 70.0 °F 87% 29.89 in 10.0 mi South 20.7 mph 29.9 mph 0.04 in   Scattered Clouds
2:45 AM 73.4 °F - 69.8 °F 88% 29.91 in 10.0 mi South 15.0 mph - N/A Thunderstorm Mostly Cloudy
2:53 AM 73.0 °F - 70.0 °F 90% 29.89 in 10.0 mi South 12.7 mph - 0.00 in Rain , Thunderstorm Light Rain
3:00 AM 73.4 °F - 69.8 °F 88% 29.91 in 9.0 mi South 11.5 mph - 0.01 in Rain Light Rain
3:24 AM 73.4 °F - 71.6 °F 94% 29.94 in 5.0 mi WSW 9.2 mph - 0.07 in Rain , Thunderstorm Rain
3:32 AM 73.4 °F - 71.6 °F 94% 29.93 in 5.0 mi SW 8.1 mph - 0.09 in Rain , Thunderstorm Light Rain
3:36 AM 73.4 °F - 71.6 °F 94% 29.94 in 4.0 mi SSW 6.9 mph - 0.10 in Rain , Thunderstorm Rain
3:53 AM 73.0 °F - 69.1 °F 87% 29.92 in 5.0 mi South 17.3 mph 23.0 mph 0.15 in Rain , Thunderstorm Rain
4:00 AM 71.6 °F - 68.0 °F 88% 29.94 in 3.0 mi South 16.1 mph 27.6 mph 0.08 in Rain , Thunderstorm Heavy Rain
4:06 AM 69.8 °F - 66.2 °F 88% 29.93 in 1.8 mi SSE 19.6 mph 23.0 mph 0.23 in Rain , Thunderstorm Heavy Thunderstorms and Rain
4:29 AM 68.0 °F - 64.4 °F 88% 29.92 in 1.8 mi NNE 10.4 mph - 0.71 in Rain , Thunderstorm Heavy Thunderstorms and Rain
4:37 AM 68.0 °F - 66.2 °F 94% 29.91 in 3.0 mi ENE 11.5 mph - 0.76 in Rain , Thunderstorm Thunderstorms and Rain
4:43 AM 68.0 °F - 66.2 °F 94% 29.94 in 4.0 mi West 18.4 mph 24.2 mph 0.80 in Rain , Thunderstorm Rain
4:46 AM 68.0 °F - 66.2 °F 94% 29.96 in 1.2 mi WNW 28.8 mph 38.0 mph 1.01 in Rain , Thunderstorm Heavy Rain
4:48 AM 68.0 °F - 66.2 °F 94% 29.98 in 0.8 mi NW 19.6 mph 38.0 mph 1.17 in Rain , Thunderstorm Heavy Rain
4:53 AM 68.0 °F - 66.0 °F 93% 29.95 in 0.5 mi NNW 9.2 mph 38.0 mph 1.48 in Fog , Rain , Thunderstorm Heavy Rain
5:02 AM 66.2 °F - 66.2 °F 100% 29.93 in 0.8 mi Variable 3.5 mph - 0.33 in Rain , Thunderstorm Heavy Rain
5:09 AM 66.2 °F - 66.2 °F 100% 29.92 in 2.0 mi NE 5.8 mph - 0.38 in Rain , Thunderstorm Heavy Rain
5:18 AM 66.2 °F - 66.2 °F 100% 29.95 in 6.0 mi Variable 3.5 mph - 0.40 in Rain , Thunderstorm Light Rain
5:26 AM 68.0 °F - 66.2 °F 94% 29.94 in 10.0 mi South 5.8 mph - 0.40 in Rain , Thunderstorm Light Rain
5:53 AM 66.9 °F - 64.0 °F 90% 29.91 in 10.0 mi Calm Calm - 0.44 in Rain , Thunderstorm Light Rain
6:14 AM 66.2 °F - 64.4 °F 94% 29.93 in 3.0 mi Calm Calm - 0.07 in Rain Heavy Rain
6:53 AM 68.0 °F - 64.9 °F 90% 29.93 in 10.0 mi South 5.8 mph 16.1 mph 0.09 in   Overcast
7:53 AM 68.0 °F - 64.9 °F 90% 29.94 in 10.0 mi SE 8.1 mph 21.9 mph N/A   Overcast
8:06 AM 69.8 °F - 64.4 °F 83% 29.95 in 10.0 mi SSE 6.9 mph - N/A   Overcast
8:53 AM 68.0 °F - 64.9 °F 90% 29.95 in 5.0 mi SE 10.4 mph - 0.01 in Rain Light Rain
9:53 AM 72.0 °F - 66.0 °F 81% 29.94 in 10.0 mi SE 10.4 mph - 0.00 in   Overcast
10:51 AM 75.2 °F - 69.8 °F 83% 29.93 in 10.0 mi SSE 13.8 mph 20.7 mph N/A   Mostly Cloudy
10:53 AM 75.0 °F - 69.1 °F 82% 29.92 in 10.0 mi SSE 13.8 mph 20.7 mph N/A   Mostly Cloudy
11:53 AM 77.0 °F - 72.0 °F 84% 29.91 in 10.0 mi South 9.2 mph 18.4 mph N/A   Overcast
12:19 PM 78.8 °F - 71.6 °F 78% 29.91 in 10.0 mi South 11.5 mph - N/A   Overcast
12:53 PM 81.0 °F 85.8 °F 73.0 °F 77% 29.89 in 10.0 mi South 15.0 mph - N/A   Overcast
1:04 PM 80.6 °F 85.4 °F 73.4 °F 79% 29.90 in 10.0 mi South 11.5 mph 19.6 mph N/A   Overcast
1:53 PM 82.9 °F 88.8 °F 73.0 °F 72% 29.88 in 10.0 mi South 13.8 mph 23.0 mph N/A   Overcast
2:53 PM 84.9 °F 92.1 °F 73.9 °F 69% 29.87 in 10.0 mi SSW 10.4 mph - N/A   Overcast
3:53 PM 84.0 °F 89.6 °F 72.0 °F 67% 29.86 in 10.0 mi South 15.0 mph 23.0 mph N/A   Overcast
4:53 PM 84.0 °F 90.2 °F 73.0 °F 69% 29.86 in 10.0 mi South 16.1 mph 24.2 mph N/A   Overcast
5:53 PM 84.0 °F 90.2 °F 73.0 °F 69% 29.84 in 10.0 mi South 11.5 mph 21.9 mph N/A   Overcast
6:53 PM 82.9 °F 89.4 °F 73.9 °F 74% 29.82 in 10.0 mi South 11.5 mph 17.3 mph N/A   Mostly Cloudy
7:53 PM 82.0 °F 87.4 °F 73.0 °F 74% 29.79 in 10.0 mi SSE 12.7 mph - N/A   Mostly Cloudy
8:53 PM 81.0 °F 85.8 °F 73.0 °F 77% 29.81 in 10.0 mi SSE 11.5 mph - N/A   Mostly Cloudy
9:53 PM 81.0 °F 85.8 °F 73.0 °F 77% 29.85 in 10.0 mi South 10.4 mph - N/A   Mostly Cloudy
10:46 PM 80.6 °F 84.6 °F 71.6 °F 74% 29.86 in 10.0 mi SSE 12.7 mph - N/A Thunderstorm Mostly Cloudy
10:53 PM 79.0 °F - 73.0 °F 82% 29.85 in 5.0 mi South 10.4 mph - 0.05 in Rain , Thunderstorm Rain
11:01 PM 78.8 °F - 73.4 °F 83% 29.85 in 10.0 mi South 11.5 mph - 0.00 in Rain Light Rain
11:53 PM 78.1 °F - 73.0 °F 84% 29.86 in 10.0 mi South 11.5 mph 19.6 mph 0.03 in Thunderstorm Mostly Cloudy